Regional Weather Roundup
Issued by NWS

Home | Current Version | Previous Version | Graphics & Text | Print | Product List | Glossary On
Versions: 1 2 3 4 5 6 7 8 9 10 11 12 13 14 15 16 17 18 19 20 21 22 23 24 25 26 27 28 29 30 31 32 33 34 35 36 37 38 39 40 41 42 43 44 45 46 47 48 49 50
000
ASUS43 KLOT 231003
RWRIL

ILLINOIS REGIONAL WEATHER ROUNDUP
NATIONAL WEATHER SERVICE CHICAGO/ROMEOVILLE IL
400 AM CST TUE JAN 23 2018

NOTE: "FAIR" INDICATES FEW OR NO CLOUDS BELOW 12,000 FEET WITH NO
SIGNIFICANT WEATHER AND/OR OBSTRUCTIONS TO VISIBILITY.

* THESE STATIONS ARE NOT UNDER NWS QUALITY CONTROL. THEY ALSO MAY NOT
  REPORT WEATHER SUCH AS PRECIPITATION OR FOG.

ILZ001-002-007-009-015-016-024-231100-
NORTHWEST ILLINOIS

CITY           SKY/WX    TMP DP  RH WIND       PRES   REMARKS
MOLINE         CLOUDY    35  33  92 NW12      29.65R WCI  27
STERLING*      LGT RAIN  33  32  96 NW10      29.61R WCI  25
SAVANNA*       LGT SNOW  32  32  98 NW7       29.64R WCI  26
$$

ILZ003-004-008-010-011-017-018-231100-
NORTH CENTRAL ILLINOIS

CITY           SKY/WX    TMP DP  RH WIND       PRES   REMARKS
ROCKFORD       LGT SNOW  32  29  88 N13       29.61R FOG     WCI  22
FREEPORT*      LGT SNOW  32  31  98 NW12      29.63R WCI  23
ROCHELLE*      CLOUDY    32  31  96 N12       29.59R WCI  23
DE KALB*       MIX PCPN  32  32  99 NW9G17    29.57R WCI  24
PERU*          CLOUDY    34  32  93 W15       29.60R WCI  24
$$

ILZ005-006-012>014-019>023-231100-
NORTHEAST ILLINOIS

CITY           SKY/WX    TMP DP  RH WIND       PRES   REMARKS
CHICAGO-OHARE  LGT RAIN  35  32  88 W10       29.53R WCI  27
CHICAGO-MIDWAY LGT SNOW  36  33  89 W12       29.54R FOG     WCI  28
AURORA         LGT SNOW  34  32  92 NW10      29.56R FOG     WCI  26
LANSING*       CLOUDY    36  34  93 W8        29.56R WCI  29
JOLIET*        RAIN      36  35  95 SW6       29.57R WCI  31
WAUKEGAN       LGT SNOW  32  31  96 NW9       29.52R VSB 3/4 WCI  24
DUPAGE AIRPORT LGT SNOW  33  32  96 NW14      29.54R FOG     WCI  23
KANKAKEE*      CLOUDY   N/A N/A N/A W13       29.59R
WHEELING       LGT SNOW  34  33  96 NW9       29.55R FOG     WCI  27
MORRIS*        RAIN      34  32  92 W9        29.57R WCI  27
NORTHERLY ISL    N/A     35  31  85 SW7         N/A  WCI  29
$$

LMZ740>746-231100-
SOUTHERN LAKE MICHIGAN

STATION/POSITION SKY/WX   TEMP    WIND        PRES    VSBY  WAVE
                          AIR SEA DIR/SP/G                  HT/PER
                          (F)     (DEG/KT/KT) (MB)    (MI)  (FT/S)
HARRISON CRIB              36     260/ 16/ 18   N/A
BURNHAM HARBOR             35     290/  9/ 11   N/A
CALUMET HARBOR             37     220/  6/ 10 1000.0R
BURNS HARBOR               38     240/ 14/ 17 1001.4R
MICHIGAN CITY              36     230/ 17/ 18   N/A
$$

ILZ025>027-034>036-040-047-049-050-058-095>099-231100-
WEST-CENTRAL ILLINOIS

CITY           SKY/WX    TMP DP  RH WIND       PRES   REMARKS
QUINCY         CLOUDY    34  33  96 W17       29.73R FOG     WCI  23
MACOMB*        CLOUDY    35  35  99 W16       29.70R WCI  25
JACKSONVILLE*  CLOUDY    34  33  95 W13       29.70R WCI  25
PITTSFIELD*    CLOUDY    36  35  94 W14G23    29.73R WCI  27
$$

ILZ028>032-037-038-041>044-048-051>054-059>061-231100-
CENTRAL ILLINOIS

CITY           SKY/WX    TMP DP  RH WIND       PRES   REMARKS
BLOOMINGTON    FLURRIES  33  32  96 W13       29.63R WCI  24
DECATUR        CLOUDY    33  33 100 W14       29.66R WCI  23
PEORIA         CLOUDY    36  34  92 W8        29.64R WCI  30
LACON*         CLOUDY    35  34  94 W6        29.61R WCI  30
LINCOLN*       CLOUDY    35  35 100 W8        29.66R WCI  28
SPRINGFIELD    CLOUDY    35  34  96 W13       29.67R WCI  26
TAYLORVILLE    CLOUDY    33  32  96 W14G20    29.69R WCI  23
$$

ILZ033-039-045-046-055>057-062-063-231100-
EAST-CENTRAL ILLINOIS

CITY           SKY/WX    TMP DP  RH WIND       PRES   REMARKS
CHAMPAIGN      CLOUDY    33  32  96 SW12      29.64R WCI  24
DANVILLE*      LGT RAIN  33  33  96 SW14      29.60R WCI  24
RANTOUL*       LGT RAIN  35  34  96 W13G20    29.63R WCI  26
MATTOON        LGT SNOW  33  32  96 SW9       29.66R FOG     WCI  25
$$

ILZ079-100>102-231100-
SOUTHWEST ILLINOIS

CITY           SKY/WX    TMP DP  RH WIND       PRES   REMARKS
ALTON          LGT SNOW  34  34 100 W20G25    29.75R WCI  23
BELLEVILLE     CLOUDY    36  30  80 W20G26    29.75R WCI  25
CAHOKIA*       CLOUDY    36  31  82 W13G25    29.77R WCI  27
SPARTA*        CLOUDY    36  32  85 W18G24    29.79R WCI  25
$$

ILZ064>066-069>071-074>076-080>082-084>086-088>090-092>094-231100-
SOUTH-CENTRAL ILLINOIS

CITY           SKY/WX    TMP DP  RH WIND       PRES   REMARKS
CARBONDALE     CLOUDY    38  30  73 W10G25    29.80R WCI  31
CAIRO*         CLOUDY    39  31  71 W13       29.85R WCI  32
MARION         CLOUDY    38  29  71 SW10      29.81R WCI  30
MT. VERNON     CLOUDY    37  31  78 SW17G24   29.76R WCI  27
CENTRALIA*     CLOUDY    37  33  87 W20       29.74R WCI  26
SALEM*         CLOUDY    37  32  82 SW17G24   29.73R WCI  27
METROPOLIS*    CLOUDY    41  29  63 SW12G18   29.83R
$$

ILZ067-068-072-073-078-083-087-091-231100-
SOUTHEAST ILLINOIS

CITY           SKY/WX    TMP DP  RH WIND       PRES   REMARKS
LAWRENCEVILLE  CLOUDY    37  32  82 SW16      29.72R WCI  28
FLORA*         LGT RAIN  37  32  81 SW18G26   29.73R WCI  27
FAIRFIELD*     CLOUDY    37  32  79 SW12      29.75R WCI  30
HARRISBURG*    CLOUDY    40  30  68 W15G26    29.80R
ROBINSON*      LGT RAIN  34  32  93 SW13      29.71S WCI  25
CARMI*         CLOUDY    38  31  75 SW14G22   29.77R WCI  30
$$

ABBREVIATIONS USED IN REMARKS
   TC - TEMPERATURE IN CELSIUS
  WCI - WIND CHILL INDEX
   HX - HEAT INDEX
  VSB - VISIBILITY
$$





USA.gov is the U.S. government's official web portal to all federal, state and local government web resources and services.